H1 CPF 1 NER 2022 1 1 9 5011 glonass107 H2 0706501 9107 32393 2022 1 1 0 0 0 2022 1 4 23 45 0 900 1 1 0 0 0 H9 10 0 59580 0.00000 0 21859969.592 -8877928.774 -9722296.517 10 0 59580 900.00000 0 20673603.338 -8183142.314 -12527022.814 10 0 59580 1800.00000 0 19285229.596 -7195403.270 -15088757.845 10 0 59580 2700.00000 0 17754936.180 -5907074.738 -17357877.981 10 0 59580 3600.00000 0 16145109.998 -4323099.322 -19290445.879 10 0 59580 4500.00000 0 14517836.247 -2461053.890 -20849052.432 10 0 59580 5400.00000 0 12932331.939 -350675.958 -22003532.271 10 0 59580 6300.00000 0 11442520.255 1967119.396 -22731539.981 10 0 59580 7200.00000 0 10094846.090 4441692.167 -23018976.856 10 0 59580 8100.00000 0 8926422.804 7014540.546 -22860260.681 10 0 59580 9000.00000 0 7963586.468 9621498.652 -22258433.796 10 0 59580 9900.00000 0 7220916.959 12195179.163 -21225107.405 10 0 59580 10800.00000 0 6700766.028 14667561.077 -19780242.923 10 0 59580 11700.00000 0 6393311.542 16972616.648 -17951773.899 10 0 59580 12600.00000 0 6277135.410 19048869.538 -15775074.935 10 0 59580 13500.00000 0 6320300.977 20841778.740 -13292286.738 10 0 59580 14400.00000 0 6481884.764 22305849.579 -10551509.226 10 0 59580 15300.00000 0 6713898.403 23406383.920 -7605877.279 10 0 59580 16200.00000 0 6963519.942 24120796.370 -4512536.231 10 0 59580 17100.00000 0 7175540.376 24439441.068 -1331536.327 10 0 59580 18000.00000 0 7294921.859 24365913.889 1875332.515 10 0 59580 18900.00000 0 7269358.866 23916816.895 5045742.925 10 0 59580 19800.00000 0 7051733.114 23120994.420 8118045.596 10 0 59580 20700.00000 0 6602357.220 22018272.618 11032473.705 10 0 59580 21600.00000 0 5890910.785 20657755.318 13732312.167 10 0 59580 22500.00000 0 4897985.460 19095747.927 16165008.181 10 0 59580 23400.00000 0 3616172.057 17393396.918 18283200.687 10 0 59580 24300.00000 0 2050642.172 15614144.481 20045648.158 10 0 59580 25200.00000 0 219198.104 13821105.654 21418036.241 10 0 59580 26100.00000 0 -1848212.478 12074478.455 22373649.228 10 0 59580 27000.00000 0 -4110498.149 10429095.916 22893892.223 10 0 59580 27900.00000 0 -6516900.819 8932222.764 22968653.871 10 0 59580 28800.00000 0 -9008887.351 7621689.001 22596502.645 10 0 59580 29700.00000 0 -11522377.356 6524438.202 21784713.037 10 0 59580 30600.00000 0 -13990214.663 5655550.729 20549121.254 10 0 59580 31500.00000 0 -16344779.524 5017781.966 18913813.361 10 0 59580 32400.00000 0 -18520632.779 4601633.776 16910652.088 10 0 59580 33300.00000 0 -20457081.771 4385954.918 14578651.603 10 0 59580 34200.00000 0 -22100560.920 4339043.743 11963212.704 10 0 59580 35100.00000 0 -23406727.752 4420205.253 9115233.546 10 0 59580 36000.00000 0 -24342187.107 4581695.436 6090113.583 10 0 59580 36900.00000 0 -24885771.854 4770969.413 2946670.645 10 0 59580 37800.00000 0 -25029327.254 4933137.233 -254007.264 10 0 59580 38700.00000 0 -24777967.049 5013522.405 -3449752.589 10 0 59580 39600.00000 0 -24149791.590 4960214.231 -6578527.504 10 0 59580 40500.00000 0 -23175081.020 4726505.390 -9579628.011 10 0 59580 41400.00000 0 -21894998.438 4273111.403 -12394859.324 10 0 59580 42300.00000 0 -20359858.433 3570078.057 -14969659.668 10 0 59580 43200.00000 0 -18627034.243 2598296.215 -17254151.142 10 0 59580 44100.00000 0 -16758591.562 1350560.071 -19204097.915 10 0 59580 45000.00000 0 -14818747.991 -167875.830 -20781753.981 10 0 59580 45900.00000 0 -12871263.886 -1939264.629 -21956585.150 10 0 59580 46800.00000 0 -10976872.750 -3933862.322 -22705852.346 10 0 59580 47700.00000 0 -9190857.355 -6110930.292 -23015045.844 10 0 59580 48600.00000 0 -7560871.362 -8420204.671 -22878162.880 10 0 59580 49500.00000 0 -6125095.936 -10803772.870 -22297823.690 10 0 59580 50400.00000 0 -4910806.978 -13198280.716 -21285223.833 10 0 59580 51300.00000 0 -3933411.618 -15537380.095 -19859923.450 10 0 59580 52200.00000 0 -3195993.302 -17754316.890 -18049476.867 10 0 59580 53100.00000 0 -2689383.952 -19784552.782 -15888908.814 10 0 59580 54000.00000 0 -2392759.774 -21568312.862 -13420046.285 10 0 59580 54900.00000 0 -2274735.621 -23052953.469 -10690717.801 10 0 59580 55800.00000 0 -2294911.924 -24195051.665 -7753834.567 10 0 59580 56700.00000 0 -2405809.100 -24962128.884 -4666370.449 10 0 59580 57600.00000 0 -2555107.815 -25333936.203 -1488259.956 10 0 59580 58500.00000 0 -2688100.320 -25303246.641 1718764.589 10 0 59580 59400.00000 0 -2750248.763 -24876120.518 4892374.012 10 0 59580 60300.00000 0 -2689741.524 -24071631.960 7970857.729 10 0 59580 61200.00000 0 -2459938.410 -22921067.361 10894329.304 10 0 59580 62100.00000 0 -2021599.956 -21466629.034 13605897.999 10 0 59580 63000.00000 0 -1344805.112 -19759698.234 16052782.758 10 0 59580 63900.00000 0 -410474.670 -17858730.473 18187346.157 10 0 59580 64800.00000 0 788565.472 -15826871.599 19968027.628 10 0 59580 65700.00000 0 2247027.713 -13729394.846 21360157.403 10 0 59580 66600.00000 0 3947137.696 -11631066.594 22336634.980 10 0 59580 67500.00000 0 5859143.289 -9593551.359 22878458.860 10 0 59580 68400.00000 0 7942337.424 -7672964.691 22975097.265 10 0 59580 69300.00000 0 10146552.898 -5917676.318 22624692.659 10 0 59580 70200.00000 0 12414067.300 -4366455.039 21834096.272 10 0 59580 71100.00000 0 14681838.981 -3047032.323 20618732.065 10 0 59580 72000.00000 0 16883980.821 -1975143.906 19002292.902 10 0 59580 72900.00000 0 18954368.624 -1154088.305 17016275.011 10 0 59580 73800.00000 0 20829275.162 -574819.375 14699359.886 10 0 59580 74700.00000 0 22449919.635 -216567.488 12096655.925 10 0 59580 75600.00000 0 23764825.989 -47961.526 9258814.829 10 0 59580 76500.00000 0 24731891.412 -28602.737 6241040.294 10 0 59580 77400.00000 0 25320078.587 -111022.488 3102008.852 10 0 59580 78300.00000 0 25510661.193 -242939.763 -97275.645 10 0 59580 79200.00000 0 25297971.034 -369721.698 -3294671.084 10 0 59580 80100.00000 0 24689616.189 -436942.115 -6428105.965 10 0 59580 81000.00000 0 23706161.946 -392929.083 -9436784.255 10 0 59580 81900.00000 0 22380288.745 -191193.307 -12262362.664 10 0 59580 82800.00000 0 20755463.283 207365.520 -14850077.455 10 0 59580 83700.00000 0 18884179.053 832567.628 -17149799.329 10 0 59580 84600.00000 0 16825840.266 1703457.113 -19116996.593 10 0 59580 85500.00000 0 14644377.656 2827263.925 -20713588.702 10 0 59581 0.00000 0 12405695.509 4198867.602 -21908674.655 10 0 59581 900.00000 0 10175054.408 5800786.478 -22679123.721 10 0 59581 1800.00000 0 8014500.763 7603691.638 -23010016.531 10 0 59581 2700.00000 0 5980444.804 9567427.610 -22894930.919 10 0 59581 3600.00000 0 4121489.441 11642496.755 -22336065.780 10 0 59581 4500.00000 0 2476597.768 13771947.589 -21344201.373 10 0 59581 5400.00000 0 1073674.393 15893589.876 -19938496.465 10 0 59581 6300.00000 0 -71381.447 17942445.777 -18146125.597 10 0 59581 7200.00000 0 -955112.280 19853336.265 -16001762.606 10 0 59581 8100.00000 0 -1586410.736 21563496.088 -13546919.297 10 0 59581 9000.00000 0 -1985904.057 23015108.941 -10829150.890 10 0 59581 9900.00000 0 -2184840.785 24157657.166 -7901142.612 10 0 59581 10800.00000 0 -2223526.580 24949987.653 -4819694.241 10 0 59581 11700.00000 0 -2149375.165 25362006.929 -1644621.639 10 0 59581 12600.00000 0 -2014656.841 25375933.558 1562403.561 10 0 59581 13500.00000 0 -1874040.074 24987054.367 4739053.593 10 0 59581 14400.00000 0 -1782030.740 24203951.672 7823559.819 10 0 59581 15300.00000 0 -1790418.212 23048191.003 10755919.357 10 0 59581 16200.00000 0 -1945837.471 21553481.598 13479068.865 10 0 59581 17100.00000 0 -2287551.652 19764344.250 15940001.920 10 0 59581 18000.00000 0 -2845550.207 17734342.066 18090807.422 10 0 59581 18900.00000 0 -3639044.507 15523948.122 19889608.253 10 0 59581 19800.00000 0 -4675425.875 13198139.333 21301381.485 10 0 59581 20700.00000 0 -5949731.350 10823817.425 22298643.828 10 0 59581 21600.00000 0 -7444640.994 8467164.947 22861988.906 10 0 59581 22500.00000 0 -9131008.028 6191046.868 22980465.904 10 0 59581 23400.00000 0 -10968900.443 4052566.292 22651792.281 10 0 59581 24300.00000 0 -12909111.181 2100876.012 21882396.565 10 0 59581 25200.00000 0 -14895074.141 375336.758 20687290.522 10 0 59581 26100.00000 0 -16865106.054 -1095901.687 19089773.333 10 0 59581 27000.00000 0 -18754880.478 -2296838.322 17120973.687 10 0 59581 27900.00000 0 -20500030.367 -3224039.834 14819238.820 10 0 59581 28800.00000 0 -22038770.017 -3886524.573 12229382.649 10 0 59581 29700.00000 0 -23314426.432 -4305118.242 9401807.894 10 0 59581 30600.00000 0 -24277773.869 -4511310.229 6391519.611 10 0 59581 31500.00000 0 -24889073.597 -4545660.521 3257049.884 10 0 59581 32400.00000 0 -25119733.419 -4455826.138 59315.075 10 0 59581 33300.00000 0 -24953517.554 -4294291.914 -3139571.593 10 0 59581 34200.00000 0 -24387256.531 -4115902.783 -6277508.437 10 0 59581 35100.00000 0 -23431027.885 -3975302.867 -9293610.875 10 0 59581 36000.00000 0 -22107800.662 -3924390.270 -12129390.535 10 0 59581 36900.00000 0 -20452559.270 -4009895.502 -14729884.991 10 0 59581 37800.00000 0 -18510943.850 -4271185.870 -17044716.602 10 0 59581 38700.00000 0 -16337464.278 -4738388.447 -19029060.534 10 0 59581 39600.00000 0 -13993362.422 -5430910.523 -20644504.010 10 0 59581 40500.00000 0 -11544211.466 -6356419.766 -21859781.173 10 0 59581 41400.00000 0 -9057351.555 -7510327.043 -22651370.432 10 0 59581 42300.00000 0 -6599267.537 -8875793.939 -23003943.644 10 0 59581 43200.00000 0 -4233016.487 -10424265.388 -22910659.278 10 0 59581 44100.00000 0 -2015810.472 -12116506.124 -22373294.386 10 0 59581 45000.00000 0 3146.421 -13904098.901 -21402212.941 10 0 59581 45900.00000 0 1784478.348 -15731343.377 -20016170.939 10 0 59581 46800.00000 0 3300040.846 -17537477.889 -18241961.393 10 0 59581 47700.00000 0 4533849.364 -19259132.740 -16113905.220 10 0 59581 48600.00000 0 5482495.341 -20832913.727 -13673196.790 10 0 59581 49500.00000 0 6155032.987 -22198008.799 -10967115.612 10 0 59581 50400.00000 0 6572341.848 -23298709.164 -8048118.411 10 0 59581 51300.00000 0 6765992.184 -24086739.311 -4972828.278 10 0 59581 52200.00000 0 6776661.050 -24523297.804 -1800939.821 10 0 59581 53100.00000 0 6652166.037 -24580722.388 1405938.616 10 0 59581 54000.00000 0 6445200.010 -24243708.435 4585483.201 10 0 59581 54900.00000 0 6210863.056 -23510028.258 7675869.701 10 0 59581 55800.00000 0 6004096.735 -22390719.845 10616981.124 10 0 59581 56700.00000 0 5877130.097 -20909735.864 13351583.728 10 0 59581 57600.00000 0 5877046.617 -19103066.662 15826447.758 10 0 59581 58500.00000 0 6043576.153 -17017373.293 17993390.284 10 0 59581 59400.00000 0 6407206.557 -14708187.323 19810219.254 10 0 59581 60300.00000 0 6987695.983 -12237752.440 21241559.960 10 0 59581 61200.00000 0 7793049.877 -9672598.076 22259547.443 10 0 59581 62100.00000 0 8819006.910 -7080946.344 22844371.306 10 0 59581 63000.00000 0 10049056.515 -4530060.498 22984662.307 10 0 59581 63900.00000 0 11454988.087 -2083645.521 22677713.261 10 0 59581 64800.00000 0 12997949.435 200591.015 21929530.135 10 0 59581 65700.00000 0 14629970.533 2273116.562 20754712.431 10 0 59581 66600.00000 0 16295888.812 4094399.439 19176165.374 10 0 59581 67500.00000 0 17935595.338 5636307.697 17224649.627 10 0 59581 68400.00000 0 19486507.564 6883023.802 14938177.444 10 0 59581 69300.00000 0 20886164.636 7831438.272 12361267.273 10 0 59581 70200.00000 0 22074836.098 8491007.568 9544071.568 10 0 59581 71100.00000 0 22998034.150 8883084.003 6541395.146 10 0 59581 72000.00000 0 23608823.688 9039747.741 3411623.699 10 0 59581 72900.00000 0 23869832.937 9002191.964 215583.849 10 0 59581 73800.00000 0 23754880.198 8818731.004 -2984642.596 10 0 59581 74700.00000 0 23250148.473 8542516.995 -6126926.496 10 0 59581 75600.00000 0 22354858.940 8229062.705 -9150297.546 10 0 59581 76500.00000 0 21081415.332 7933676.035 -11996125.134 10 0 59581 77400.00000 0 19455013.574 7708915.030 -14609250.929 10 0 59581 78300.00000 0 17512733.299 7602171.057 -16939051.603 10 0 59581 79200.00000 0 15302149.367 7653481.990 -18940411.686 10 0 59581 80100.00000 0 12879521.322 7893667.302 -20574588.490 10 0 59581 81000.00000 0 10307635.862 8342863.297 -21809953.371 10 0 59581 81900.00000 0 7653391.412 9009519.795 -22622596.049 10 0 59581 82800.00000 0 4985224.302 9889900.416 -22996781.213 10 0 59581 83700.00000 0 2370482.163 10968107.638 -22925249.435 10 0 59581 84600.00000 0 -127147.901 12216632.194 -22409357.055 10 0 59581 85500.00000 0 -2450051.046 13597404.682 -21459052.502 10 0 59582 0.00000 0 -4548837.585 15063306.421 -20092689.439 10 0 59582 900.00000 0 -6384150.079 16560078.477 -18336678.923 10 0 59582 1800.00000 0 -7928047.798 18028548.310 -16224988.413 10 0 59582 2700.00000 0 -9164915.616 19407084.732 -13798493.725 10 0 59582 3600.00000 0 -10091857.205 20634177.326 -11104197.122 10 0 59582 4500.00000 0 -10718557.689 21651033.604 -8194324.916 10 0 59582 5400.00000 0 -11066621.612 22404084.957 -5125321.272 10 0 59582 6300.00000 0 -11168414.244 22847295.883 -1956757.044 10 0 59582 7200.00000 0 -11065455.117 22944178.730 1249825.430 10 0 59582 8100.00000 0 -10806431.824 22669428.127 4432109.124 10 0 59582 9000.00000 0 -10444918.296 22010105.075 7528217.192 10 0 59582 9900.00000 0 -10036894.536 20966319.384 10477921.563 10 0 59582 10800.00000 0 -9638173.435 19551380.349 13223821.131 10 0 59582 11700.00000 0 -9301844.395 17791407.914 15712465.801 10 0 59582 12600.00000 0 -9075842.880 15724419.534 17895403.711 10 0 59582 13500.00000 0 -9000749.707 13398930.070 19730130.656 10 0 59582 14400.00000 0 -9107914.141 10872122.624 21180922.744 10 0 59582 15300.00000 0 -9417980.998 8207666.432 22219535.737 10 0 59582 16200.00000 0 -9939884.849 5473272.630 22825757.333 10 0 59582 17100.00000 0 -10670354.455 2738089.692 22987801.652 10 0 59582 18000.00000 0 -11593948.927 70047.063 22702538.285 10 0 59582 18900.00000 0 -12683624.564 -2466742.597 21975551.612 10 0 59582 19800.00000 0 -13901808.785 -4814414.658 20821029.365 10 0 59582 20700.00000 0 -15201936.129 -6923516.403 19261482.776 10 0 59582 21600.00000 0 -16530381.698 -8754814.141 17327303.903 10 0 59582 22500.00000 0 -17828710.590 -10280669.178 15056168.910 10 0 59582 23400.00000 0 -19036148.419 -11485926.384 12492299.150 10 0 59582 24300.00000 0 -20092168.656 -12368279.756 9685594.722 10 0 59582 25200.00000 0 -20939087.535 -12938101.413 6690657.703 10 0 59582 26100.00000 0 -21524556.933 -13217743.007 3565724.563 10 0 59582 27000.00000 0 -21803849.997 -13240340.853 371529.078 10 0 59582 27900.00000 0 -21741843.093 -13048176.931 -2829881.666 10 0 59582 28800.00000 0 -21314610.611 -12690666.446 -5976354.539 10 0 59582 29700.00000 0 -20510565.569 -12222058.271 -9006837.080 10 0 59582 30600.00000 0 -19331098.225 -11698946.352 -11862560.039 10 0 59582 31500.00000 0 -17790686.030 -11177697.770 -14488172.731 10 0 59582 32400.00000 0 -15916470.446 -10711906.271 -16832809.551 10 0 59582 33300.00000 0 -13747318.298 -10349978.574 -18851067.549 10 0 59582 34200.00000 0 -11332406.710 -10132954.817 -20503876.913 10 0 59582 35100.00000 0 -8729390.184 -10092654.418 -21759248.517 10 0 59582 36000.00000 0 -6002225.329 -10250224.757 -22592885.128 10 0 59582 36900.00000 0 -3218742.725 -10615153.247 -22988645.407 10 0 59582 37800.00000 0 -448065.442 -11184784.032 -22938852.547 10 0 59582 38700.00000 0 2242020.199 -11944359.682 -22444442.127 10 0 59582 39600.00000 0 4787634.026 -12867586.545 -21514946.458 10 0 59582 40500.00000 0 7131206.575 -13917700.828 -20168315.558 10 0 59582 41400.00000 0 9223620.477 -15048991.729 -18430577.602 10 0 59582 42300.00000 0 11026000.827 -16208718.903 -16335344.585 10 0 59582 43200.00000 0 12511081.106 -17339344.997 -13923171.677 10 0 59582 44100.00000 0 13664088.436 -18380990.591 -11240781.500 10 0 59582 45000.00000 0 14483111.612 -19274009.109 -8340167.303 10 0 59582 45900.00000 0 14978936.857 -19961573.866 -5277591.458 10 0 59582 46800.00000 0 15174358.305 -20392168.271 -2112498.035 10 0 59582 47700.00000 0 15102992.296 -20521873.844 1093639.747 10 0 59582 48600.00000 0 14807645.579 -20316358.690 4278514.795 10 0 59582 49500.00000 0 14338306.458 -19752481.381 7380200.679 10 0 59582 50400.00000 0 13749844.082 -18819441.161 10338361.133 10 0 59582 51300.00000 0 13099513.657 -17519424.429 13095430.322 10 0 59582 52200.00000 0 12444373.692 -15867718.650 15597740.168 10 0 59582 53100.00000 0 11838725.298 -13892287.461 17796571.900 10 0 59582 54000.00000 0 11331682.595 -11632823.469 19649110.823 10 0 59582 54900.00000 0 10964977.726 -9139317.361 21119285.170 10 0 59582 55800.00000 0 10771093.938 -6470202.439 22178472.356 10 0 59582 56700.00000 0 10771806.171 -3690151.500 22806058.766 10 0 59582 57600.00000 0 10977191.235 -867617.581 22989842.142 10 0 59582 58500.00000 0 11385149.621 1927779.117 22726268.806 10 0 59582 59400.00000 0 11981459.339 4627909.540 22020501.236 10 0 59582 60300.00000 0 12740359.492 7168728.949 20886314.850 10 0 59582 61200.00000 0 13625638.951 9492697.233 19345826.132 10 0 59582 62100.00000 0 14592183.988 11550926.142 17429057.593 10 0 59582 63000.00000 0 15587919.387 13304964.728 15173348.169 10 0 59582 63900.00000 0 16556060.766 14728149.404 12622620.802 10 0 59582 64800.00000 0 17437582.705 15806463.543 9826521.718 10 0 59582 65700.00000 0 18173798.141 16538872.153 6839448.519 10 0 59582 66600.00000 0 18708939.729 16937119.247 3719486.512 10 0 59582 67500.00000 0 18992633.896 17024998.254 527274.483 10 0 59582 68400.00000 0 18982162.900 16837127.972 -2675177.512 10 0 59582 69300.00000 0 18644419.311 16417287.277 -5825694.759 10 0 59582 70200.00000 0 17957470.450 15816380.270 -8863145.080 10 0 59582 71100.00000 0 16911666.866 15090118.850 -11728623.002 10 0 59582 72000.00000 0 15510248.283 14296521.225 -14366587.828 10 0 59582 72900.00000 0 13769421.522 13493332.240 -16725933.893 10 0 59582 73800.00000 0 11717906.976 12735474.220 -18760972.861 10 0 59582 74700.00000 0 9395972.343 12072635.324 -20432309.749 10 0 59582 75600.00000 0 6853993.369 11547096.274 -21707596.771 10 0 59582 76500.00000 0 4150600.756 11191886.036 -22562151.436 10 0 59582 77400.00000 0 1350489.291 11029343.182 -22979427.893 10 0 59582 78300.00000 0 -1478021.154 11070142.626 -22951333.267 10 0 59582 79200.00000 0 -4265573.029 11312828.187 -22478383.399 10 0 59582 80100.00000 0 -6944401.164 11743870.436 -21569695.153 10 0 59582 81000.00000 0 -9450898.006 12338247.672 -20242815.312 10 0 59582 81900.00000 0 -11728009.130 13060526.196 -18523388.741 10 0 59582 82800.00000 0 -13727360.740 13866395.353 -16444671.473 10 0 59582 83700.00000 0 -15411031.795 14704593.803 -14046897.008 10 0 59582 84600.00000 0 -16752897.714 15519146.987 -11376506.947 10 0 59582 85500.00000 0 -17739489.972 16251822.423 -8485259.789 10 0 59583 0.00000 0 -18370335.893 16844699.875 -5429234.461 10 0 59583 900.00000 0 -18657764.744 17242748.469 -2267745.544 10 0 59583 1800.00000 0 -18626187.436 17396300.989 937804.920 10 0 59583 2700.00000 0 -18310881.256 17263321.222 4125122.268 10 0 59583 3600.00000 0 -17756329.975 16811366.726 7232233.132 10 0 59583 4500.00000 0 -17014189.888 16019163.046 10198695.808 10 0 59583 5400.00000 0 -16140967.949 14877721.299 12966782.593 10 0 59583 6300.00000 0 -15195510.525 13390950.267 15482610.306 10 0 59583 7200.00000 0 -14236409.462 11575735.553 17697196.141 10 0 59583 8100.00000 0 -13319435.666 9461480.873 19567417.682 10 0 59583 9000.00000 0 -12495109.225 7089129.316 21056857.892 10 0 59583 9900.00000 0 -11806509.185 4509704.492 22136518.212 10 0 59583 10800.00000 0 -11287415.848 1782431.638 22785385.785 10 0 59583 11700.00000 0 -10960864.192 -1027483.532 22990843.702 10 0 59583 12600.00000 0 -10838169.503 -3851325.963 22748916.354 10 0 59583 13500.00000 0 -10918466.201 -6619489.824 22064345.243 10 0 59583 14400.00000 0 -11188779.028 -9264135.697 20950493.937 10 0 59583 15300.00000 0 -11624623.225 -11721775.978 19429084.185 10 0 59583 16200.00000 0 -12191107.844 -13935681.218 17529768.504 10 0 59583 17100.00000 0 -12844495.102 -15858007.666 15289547.710 10 0 59583 18000.00000 0 -13534149.304 -17451557.942 12752045.009 10 0 59583 18900.00000 0 -14204792.403 -18691102.302 9966651.052 10 0 59583 19800.00000 0 -14798970.259 -19564206.484 6987556.926 10 0 59583 20700.00000 0 -15259624.808 -20071532.833 3872694.440 10 0 59583 21600.00000 0 -15532662.886 -20226603.691 682604.802 10 0 59583 22500.00000 0 -15569412.734 -20055038.714 -2520741.773 10 0 59583 23400.00000 0 -15328864.087 -19593299.765 -5675151.992 10 0 59583 24300.00000 0 -14779597.072 -18886997.793 -8719417.145 10 0 59583 25200.00000 0 -13901318.410 -17988834.253 -11594498.836 10 0 59583 26100.00000 0 -12685940.167 -16956264.711 -14244669.715 10 0 59583 27000.00000 0 -11138155.555 -15848983.572 -16618587.394 10 0 59583 27900.00000 0 -9275487.403 -14726335.915 -18670281.341 10 0 59583 28800.00000 0 -7127806.939 -13644765.027 -20360034.355 10 0 59583 29700.00000 0 -4736342.405 -12655402.268 -21655142.572 10 0 59583 30600.00000 0 -2152217.987 -11801899.600 -22530540.368 10 0 59583 31500.00000 0 565417.135 -11118594.734 -22969278.997 10 0 59583 32400.00000 0 3351593.224 -10629084.844 -22962850.598 10 0 59583 33300.00000 0 6137967.921 -10345267.759 -22511351.829 10 0 59583 34200.00000 0 8855417.670 -10266890.257 -21623484.186 10 0 59583 35100.00000 0 11436666.803 -10381622.070 -20316390.828 10 0 59583 36000.00000 0 13818846.750 -10665652.558 -18615332.505 10 0 59583 36900.00000 0 15945880.366 -11084785.360 -16553208.050 10 0 59583 37800.00000 0 17770593.369 -11595985.602 -14169927.645 10 0 59583 38700.00000 0 19256465.738 -12149315.302 -11511649.785 10 0 59583 39600.00000 0 20378950.431 -12690176.122 -8629895.714 10 0 59583 40500.00000 0 21126304.501 -13161765.445 -5580557.449 10 0 59583 41400.00000 0 21499897.783 -13507642.378 -2422817.957 10 0 59583 42300.00000 0 21513985.990 -13674295.154 781995.910 10 0 59583 43200.00000 0 21194957.553 -13613600.923 3971605.508 10 0 59583 44100.00000 0 20580085.754 -13285073.010 7083994.110 10 0 59583 45000.00000 0 19715838.631 -12657799.362 10058618.014 10 0 59583 45900.00000 0 18655818.066 -11711988.734 12837590.837 10 0 59583 46800.00000 0 17458415.224 -10440057.597 15366817.142 10 0 59583 47700.00000 0 16184281.676 -8847210.156 17597052.532 10 0 59583 48600.00000 0 14893723.385 -6951485.294 19484868.883 10 0 59583 49500.00000 0 13644127.922 -4783266.836 20993505.442 10 0 59583 50400.00000 0 12487533.860 -2384276.282 22093588.793 10 0 59583 51300.00000 0 11468445.068 193910.980 22763707.502 10 0 59583 52200.00000 0 10621982.081 2891764.903 22990830.257 10 0 59583 53100.00000 0 9972448.377 5644036.736 22770559.350 10 0 59583 54000.00000 0 9532371.604 8382239.011 22107214.761 10 0 59583 54900.00000 0 9302059.639 11037266.483 21013747.327 10 0 59583 55800.00000 0 9269689.517 13542049.080 19511482.881 10 0 59583 56700.00000 0 9411924.658 15834126.564 17629702.499 10 0 59583 57600.00000 0 9695033.439 17858037.959 15405067.211 10 0 59583 58500.00000 0 10076460.968 19567426.452 12880898.635 10 0 59583 59400.00000 0 10506786.697 20926772.558 10106329.820 10 0 59583 60300.00000 0 10931984.227 21912683.991 7135343.159 10 0 59583 61200.00000 0 11295886.887 22514689.279 4025714.650 10 0 59583 62100.00000 0 11542754.078 22735503.214 837885.519 10 0 59583 63000.00000 0 11619829.166 22590754.424 -2366216.322 10 0 59583 63900.00000 0 11479780.312 22108188.017 -5524381.460 10 0 59583 64800.00000 0 11082920.715 21326378.281 -8575327.034 10 0 59583 65700.00000 0 10399114.267 20293006.858 -11459883.990 10 0 59583 66600.00000 0 9409286.131 19062779.846 -14122140.421 10 0 59583 67500.00000 0 8106474.451 17695072.090 -16510519.141 10 0 59583 68400.00000 0 6496378.775 16251397.894 -18578769.168 10 0 59583 69300.00000 0 4597381.852 14792814.256 -20286852.651 10 0 59583 70200.00000 0 2440043.349 13377365.012 -21601711.074 10 0 59583 71100.00000 0 66085.770 12057672.154 -22497896.940 10 0 59583 72000.00000 0 -2473086.121 10878774.158 -22958059.706 10 0 59583 72900.00000 0 -5118272.098 9876300.606 -22973277.399 10 0 59583 73800.00000 0 -7804692.633 9075058.330 -22543228.107 10 0 59583 74700.00000 0 -10464443.902 8488087.253 -21676198.221 10 0 59583 75600.00000 0 -13029091.485 8116224.705 -20388927.164 10 0 59583 76500.00000 0 -15432296.646 7948195.978 -18706291.057 10 0 59583 77400.00000 0 -17612367.414 7961227.244 -16660830.632 10 0 59583 78300.00000 0 -19514629.597 8122155.211 -14292131.489 10 0 59583 79200.00000 0 -21093519.751 8388987.268 -11646067.476 10 0 59583 80100.00000 0 -22314313.245 8712846.844 -8773920.793 10 0 59583 81000.00000 0 -23154415.338 9040222.407 -5731394.875 10 0 59583 81900.00000 0 -23604161.101 9315425.378 -2577538.415 10 0 59583 82800.00000 0 -23667090.240 9483153.094 626398.903 10 0 59583 83700.00000 0 -23359684.890 9491048.033 3818156.824 10 0 59583 84600.00000 0 -22710580.953 9292144.279 6935677.766 10 0 59583 85500.00000 0 -21759285.873 8847096.614 9918318.650 99